Location: *
(28.3744°N, 81.5492°W)
Time: 02:46:38
(UTC+00:00)

CZ-4B R/B - Pass Details

Date: 15 June 2025
Orbit: 808 x 880 km, 98.9° (Epoch: 11 July)

Event Time Altitude Azimuth Distance (km) Brightness Sun altitude
Exits shadow 01:09:59 11° 135° (SE) 2,340 4.9 -9.4°
Maximum altitude 01:14:35 35° 72° (ENE) 1,278 3.9 -10.3°
Drops below altitude 10° 01:19:21 10° 7° (N) 2,395 5.9 -11.1°
Sets 01:21:50 0° 359° (N) 3,327 6.8 -11.6°
